{"data":{"norad_id":60044,"intl_designator":"2024-112G","name":"STARLINK-11148 [DTC]","alt_names":[],"object_type":"PAYLOAD","status":"ACTIVE","operator":null,"country":"US","launch_date":"2024-06-08","launch_site_code":"AFWTR","launch_vehicle":null,"mission":null,"orbit_class":"UNKNOWN","rcs_meters":null,"size_class":null,"mass_kg":null,"dimensions":null,"purposes":["comms"],"wikipedia_slug":null,"has_3d_model":false,"image_url":null,"decayed_at":null,"tle_current":{"epoch":"2026-09-21T13:15:29.064672Z","epoch_age_seconds":86430,"freshness":"FRESH","line1":"1 60044U 24112G   26264.55241973 -.00000610  00000+0 -18430-6 0  9990","line2":"2 60044  53.1593  20.7251 0000706  98.3308 261.7790 15.69704533131744","mean_motion":15.69704533,"eccentricity":7.06e-5,"inclination_deg":53.1593,"raan_deg":20.7251,"arg_perigee_deg":98.3308,"mean_anomaly_deg":261.779,"bstar":-1.843e-7,"rev_number":13174,"period_min":91.737009719141,"perigee_km":359.26670064125,"apogee_km":360.21808921181,"semimajor_km":6737.8793949265,"source":"CELESTRAK","updated_at":"2026-09-22T09:00:49.143008Z"}}}